Miscellaneous Local Product
Issued by NWS Hastings, NE

Home | Current Version | Previous Version | Graphics & Text | Print | Product List | Glossary On
Versions: 1 2 3 4 5 6 7 8 9 10 11 12 13 14 15 16 17 18 19 20 21 22 23 24 25 26 27 28 29 30 31 32 33 34 35 36 37 38 39 40 41 42 43 44 45 46 47 48 49 50
000
AXUS43 KGID 030102
MISGRI

GID CWA HOURLY WEATHER ROUNDUP
NATIONAL WEATHER SERVICE HASTINGS NE
800 PM CDT SAT MAY 02 2015

NOTE: "FAIR" INDICATES FEW OR NO CLOUDS BELOW 12,000 FEET WITH NO
SIGNIFICANT WEATHER AND/OR OBSTRUCTIONS TO VISIBILITY.

...SOUTH CENTRAL NEBRASKA...

CITY           SKY/WX    TMP DP  RH WIND       PRES   REMARKS
GRAND ISLAND   PTCLDY    79  48  33 S15       29.70F THUNDER
HASTINGS       MOCLDY    79  51  37 S8        29.72S
KEARNEY        CLOUDY    79  46  31 SE13      29.72S
ORD            MOCLDY    78  49  35 S7        29.66F
YORK           PTCLDY    81  54  39 S17G25    29.72S
AURORA         PTCLDY    78  51  38 S14       29.70F
LEXINGTON      CLOUDY    74  49  40 SW8       29.73S
HOLDREGE       CLOUDY    81  42  25 S15       29.72F
HEBRON         PTCLDY    78  51  38 S12       29.75F

...NEBRASKA PANHANDLE...

CITY           SKY/WX    TMP DP  RH WIND       PRES   REMARKS
CHADRON        CLEAR     74  39  28 NW6       29.71F
ALLIANCE       PTCLDY    74  41  30 NW6       29.75F
SCOTTSBLUFF    PTCLDY    75  38  26 S13       29.78R
SIDNEY         CLOUDY    66  43  43 W12       29.85R

...WESTERN AND NORTH CENTRAL NEBRASKA...

CITY           SKY/WX    TMP DP  RH WIND       PRES   REMARKS
VALENTINE      PTCLDY    80  38  22 E7        29.68R
AINSWORTH      MOCLDY    79  46  31 S7        29.68S
ONEILL         PTCLDY    81  53  38 S3        29.69F
BROKEN BOW     PTCLDY    82  45  27 SW9       29.70S
IMPERIAL       CLOUDY    76  38  25 W7        29.77S
NORTH PLATTE   CLOUDY    75  41  29 W8        29.73S
MCCOOK         MOCLDY    82  40  22 CALM      29.73F

...EASTERN NEBRASKA...

CITY           SKY/WX    TMP DP  RH WIND       PRES   REMARKS
NORFOLK        CLEAR     75  54  47 SE7       29.68F
SO SIOUX CITY  CLEAR     73  55  53 SE17      29.74F
TEKAMAH        CLEAR     72  56  57 SE20      29.75F
COLUMBUS       PTCLDY    72  57  60 E7        29.72S
ALBION         PTCLDY    78  46  31 SE5       29.69F
OMAHA EPPLEY   PTCLDY    68  57  68 SE18      29.77F
OFFUTT AFB     CLEAR     67  58  71 SE14      29.77F
MILLARD        CLEAR     70  59  67 SE10      29.76F
LINCOLN        CLEAR     77  54  44 S16       29.73F
NEBRASKA CITY  CLEAR     72  51  47 S15       29.79F
BEATRICE       CLEAR     78  54  43 S14G24    29.76F
FALLS CITY     CLEAR     73  52  47 S13       29.81F

...NORTHERN KANSAS...

CITY           SKY/WX    TMP DP  RH WIND       PRES   REMARKS
GOODLAND       CLOUDY    75  51  43 S9        29.81S
HILL CITY      MOCLDY    80  50  34 S3        29.74F
NORTON         CLEAR     79  39  24 S8        29.73F
PHILLIPSBURG   CLEAR     84  46  26 S3        29.73S
SMITH CENTER   CLEAR     79  48  34 SE15G22   29.73S
HAYS           MOCLDY    81  48  32 S24       29.75S
RUSSELL        PTCLDY    79  50  36 S21G28    29.75S
CONCORDIA      PTCLDY    78  53  41 S20G28    29.77S
SALINA         PTCLDY    77  55  46 S18       29.80F
TOPEKA         CLEAR     73  53  49 S12       29.86S



USA.gov is the U.S. government's official web portal to all federal, state and local government web resources and services.